Weather History for West Plains, MO

Change the Weather History Date:

Saturday, May 25, 2013

  Actual Average Record
Temperature  
Mean Temperature 60 °F 68 °F  
Max Temperature 75 °F 79 °F 90 °F (2006)
Min Temperature 44 °F 57 °F 41 °F (1979)
Degree Days  
Heating Degree Days 5 1  
Month to date heating degree days 125 75  
Since 1 July heating degree days 4487 4337  
Cooling Degree Days 0 4  
Month to date cooling degree days 49 65  
Year to date cooling degree days 68 93  
Growing Degree Days 10 (Base 50)    
Moisture  
Dew Point 50 °F    
Average Humidity 71    
Maximum Humidity 89    
Minimum Humidity 53    
Precipitation  
Precipitation 0.00 in 0.11 in 2.80 in (2000)
Month to date precipitation 2.91 4.13  
Year to date precipitation 19.19 18.46  
Sea Level Pressure  
Sea Level Pressure 30.23 in    
Wind  
Wind Speed 6 mph (SSE)    
Max Wind Speed 13 mph    
Max Gust Speed 17 mph    
Visibility 10 miles    
Events      
T = Trace of Precipitation, MM = Missing Value Source: NWS Daily Summary

Daily Weather History Graph

Daily Weather History Graph

Search for Another Location

Airport:

Trip Planner

Search our weather history database for the weather conditions in past years. The results will help you decide how hot, cold, wet, or windy it might be!

Date:

Astronomy

May. 25, 2013 Rise Set
Actual Time 5:52 AM CDT 8:16 PM CDT
Civil Twilight 5:23 AM CDT 8:46 PM CDT
Nautical Twilight 4:46 AM CDT 9:23 PM CDT
Astronomical Twilight 4:06 AM CDT 10:03 PM CDT
Moon 9:05 PM CDT (5/25) 6:19 AM CDT (5/25)
Length of Visible Light 15h 23m
Length of Day
14h 23m
Full, 100% of the Moon is Illuminated
May 25
Full
May 31
Last Quarter
Jun 8
New
Jun 16
First Quarter
Jun 23
Full

Hourly Weather History & Observations

Time (CDT) Temp. Dew Point Humidity Pressure Visibility Wind Dir Wind Speed Gust Speed Precip Events Conditions
12:53 AM 48.0 °F 43.0 °F 83% 30.29 in 10.0 mi Calm Calm - N/A   Clear
1:53 AM 46.0 °F 42.1 °F 86% 30.27 in 10.0 mi Calm Calm - N/A   Clear
2:53 AM 44.1 °F 41.0 °F 89% 30.27 in 10.0 mi Calm Calm - N/A   Clear
3:53 AM 50.0 °F 41.0 °F 71% 30.25 in 10.0 mi ESE 4.6 mph - N/A   Clear
4:53 AM 48.9 °F 41.0 °F 74% 30.26 in 10.0 mi Calm Calm - N/A   Clear
5:53 AM 48.0 °F 42.1 °F 80% 30.27 in 10.0 mi Calm Calm - N/A   Clear
6:53 AM 53.1 °F 44.1 °F 71% 30.27 in 10.0 mi SSE 4.6 mph - N/A   Clear
7:53 AM 57.9 °F 46.9 °F 67% 30.28 in 10.0 mi South 6.9 mph - N/A   Clear
8:53 AM 61.0 °F 46.9 °F 60% 30.29 in 10.0 mi South 11.5 mph - N/A   Clear
9:53 AM 64.9 °F 48.9 °F 56% 30.28 in 10.0 mi South 9.2 mph - N/A   Clear
10:53 AM 66.0 °F 50.0 °F 56% 30.27 in 10.0 mi SSE 9.2 mph - N/A   Overcast
11:53 AM 68.0 °F 52.0 °F 56% 30.27 in 10.0 mi SE 8.1 mph - N/A   Mostly Cloudy
12:53 PM 70.0 °F 52.0 °F 53% 30.26 in 10.0 mi SE 6.9 mph - N/A   Mostly Cloudy
1:53 PM 73.0 °F 55.0 °F 53% 30.23 in 10.0 mi SSE 9.2 mph - N/A   Clear
2:53 PM 73.9 °F 55.9 °F 53% 30.23 in 10.0 mi SE 11.5 mph 17.3 mph N/A   Scattered Clouds
3:53 PM 73.9 °F 57.0 °F 55% 30.20 in 10.0 mi SSE 8.1 mph - N/A   Clear
4:53 PM 73.9 °F 57.9 °F 57% 30.18 in 10.0 mi SSE 9.2 mph - N/A   Clear
5:53 PM 75.0 °F 57.9 °F 55% 30.17 in 10.0 mi South 8.1 mph - N/A   Clear
6:53 PM 73.0 °F 57.9 °F 59% 30.16 in 10.0 mi SE 5.8 mph - N/A   Clear
7:53 PM 71.1 °F 57.0 °F 61% 30.13 in 10.0 mi SSE 8.1 mph - N/A   Clear
8:53 PM 68.0 °F 57.0 °F 68% 30.13 in 10.0 mi SSE 4.6 mph - N/A   Clear
9:53 PM 64.0 °F 55.9 °F 75% 30.14 in 10.0 mi East 3.5 mph - N/A   Clear
10:53 PM 63.0 °F 55.0 °F 75% 30.15 in 10.0 mi SSE 3.5 mph - N/A   Clear
11:53 PM 62.1 °F 54.0 °F 75% 30.15 in 10.0 mi Calm Calm - N/A   Clear